• Join FlightAware (Why Join?)
  • Login
  • US Flag 
03:53AM EST


 

Airport Tracker/Info


-or-


 

Live Flight TrackerFlight Track Log ✈ N658FE ✈ 02-May-2013 ✈ KSEA - KOAK

Flight Track Log - Related Links

Times and Time Zones

All times are in EDT time to prevent confusion due to time zone crossing. See the N658FE flight status page for this flight to view local times or setup timezone preferences in your user account.

Time Position Orientation Groundspeed Altitude Reporting Facility
EDT Latitude Longitude Course Direction KTS MPH feet Rate Location/Type
10:05AM 47.6010 -122.3560 315° West 9,900  Level FlightAware
10:06AM 47.6100 -122.3810 298° West 11,200 766 Climbing FlightAware
10:06AM 47.6120 -122.3990 279° West 12,000 735 Climbing FlightAware
10:06AM 47.6000 -122.4500 251° West 14,000 715 Climbing FlightAware
10:07AM 47.5610 -122.5170 229° Southwest 15,200 668 Climbing FlightAware
10:08AM 47.5000 -122.6190 229° Southwest 17,700 645 Climbing FlightAware
10:08AM 47.4510 -122.7000 228° Southwest 20,000 586 Climbing FlightAware
10:09AM 47.3990 -122.7860 228° Southwest 22,100 527 Climbing FlightAware
10:10AM 47.3410 -122.8810 228° Southwest 24,200 471 Climbing FlightAware
10:11AM 47.2550 -123.0190 227° Southwest 26,700 415 Climbing FlightAware
10:12AM 47.1650 -123.1070 214° Southwest 28,400 345 Climbing FlightAware
10:12AM 47.0790 -123.1520 200° South 30,400 296 Climbing FlightAware
10:13AM 46.9950 -123.1800 193° South 32,100 233 Climbing FlightAware
10:14AM 46.8960 -123.1940 186° South 33,800 177 Climbing FlightAware
10:14AM 46.8250 -123.1900 178° South 34,600 119 Climbing FlightAware
10:15AM 46.7290 -123.1800 176° South 35,500 91 Climbing FlightAware
10:16AM 46.6030 -123.1660 176° South 36,800 58 Climbing FlightAware
10:17AM 46.5010 -123.1550 176° South 37,000 Climbing FlightAware
10:17AM 46.4070 -123.1450 176° South 37,000  Level FlightAware
10:18AM 46.3030 -123.1330 175° South 37,000  Level FlightAware
10:19AM 46.2080 -123.1230 176° South 37,000  Level FlightAware
10:19AM 46.1160 -123.1130 176° South 37,000  Level FlightAware
10:20AM 46.0250 -123.1040 176° South 37,000  Level FlightAware
10:21AM 45.9230 -123.0930 176° South 37,000  Level FlightAware
10:22AM 45.8160 -123.0810 176° South 37,000  Level FlightAware
10:22AM 45.7360 -123.0730 176° South 37,000  Level FlightAware
10:23AM 45.6290 -123.0610 176° South 37,000  Level FlightAware
10:24AM 45.5310 -123.0510 176° South 37,000  Level FlightAware
10:24AM 45.4380 -123.0410 176° South 37,000  Level FlightAware
10:25AM 45.3430 -123.0310 176° South 37,000  Level FlightAware
10:26AM 45.2390 -123.0200 176° South 37,000  Level FlightAware
10:26AM 45.1440 -123.0110 176° South 37,000  Level FlightAware
10:27AM 45.0410 -123.0000 176° South 37,000  Level FlightAware
10:28AM 44.9500 -122.9910 176° South 37,000  Level FlightAware
10:29AM 44.8470 -122.9800 176° South 37,000  Level FlightAware
10:29AM 44.7550 -122.9700 176° South 37,000  Level FlightAware
10:30AM 44.6640 -122.9610 176° South 37,000  Level FlightAware
10:31AM 44.5580 -122.9500 176° South 37,000  Level FlightAware
10:31AM 44.4670 -122.9410 176° South 37,000  Level FlightAware
10:32AM 44.3740 -122.9390 179° South 37,000  Level FlightAware
10:33AM 44.2720 -122.9370 179° South 37,000  Level FlightAware
10:33AM 44.1710 -122.9340 179° South 37,000  Level FlightAware
10:34AM 44.0760 -122.9320 179° South 37,000  Level FlightAware
10:35AM 43.9840 -122.9290 179° South 37,000  Level FlightAware
10:35AM 43.8940 -122.9260 179° South 37,000  Level FlightAware
10:36AM 43.8030 -122.9230 179° South 37,000  Level FlightAware
10:37AM 43.7170 -122.9210 179° South 37,000  Level FlightAware
10:38AM 43.6010 -122.9170 179° South 37,000  Level FlightAware
10:38AM 43.5140 -122.9150 179° South 37,000  Level FlightAware
10:39AM 43.4090 -122.9110 178° South 37,000  Level FlightAware
10:40AM 43.3190 -122.9070 178° South 37,000  Level FlightAware
10:40AM 43.2220 -122.9010 177° South 37,000  Level FlightAware
10:41AM 43.1850 -122.8964 177° South 485 558 37,000  Level Seattle Center
10:42AM 43.0500 -122.8878 177° South 485 558 37,000  Level Seattle Center
10:43AM 42.9164 -122.8814 178° South 480 552 37,000  Level Seattle Center
10:44AM 42.7828 -122.8739 178° South 479 551 37,000  Level Seattle Center
10:45AM 42.6614 -122.8675 178° South 476 548 37,000  Level Seattle Center
10:46AM 42.5289 -122.8606 178° South 477 549 37,000  Level Seattle Center
10:47AM 42.3703 -122.8519 178° South 476 548 37,000  Level Seattle Center
10:48AM 42.2394 -122.8447 178° South 474 545 37,000 -800 Level Seattle Center
10:54AM 41.4470 -122.7980 178° South 37,000 -818 Level FlightAware
10:56AM 41.2280 -122.7820 177° South 37,000 -945 Level FlightAware
10:56AM 41.1210 -122.7740 177° South 37,000 -989 Level FlightAware
10:57AM 41.0220 -122.7660 177° South 37,000 -1,012 Level FlightAware
10:58AM 40.9350 -122.7600 177° South 37,000 -1,033 Level FlightAware
10:58AM 40.8570 -122.7550 177° South 37,000 -1,053 Level FlightAware
10:59AM 40.7490 -122.7470 177° South 37,000 -1,071 Level FlightAware
11:00AM 40.6530 -122.7400 177° South 37,000 -1,097 Level FlightAware
11:01AM 40.5620 -122.7330 177° South 37,000 -1,123 Level FlightAware
11:01AM 40.4770 -122.7270 177° South 37,000 -1,146 Level FlightAware
11:02AM 40.3870 -122.7210 177° South 37,000 -1,170 Level FlightAware
11:03AM 40.2890 -122.7140 177° South 37,000 -1,195 Level FlightAware
11:04AM 40.1580 -122.7050 177° South 37,000 -1,225 Level FlightAware
11:04AM 40.0700 -122.6980 177° South 37,000 -1,268 Level FlightAware
11:05AM 39.9850 -122.6920 177° South 37,000 -1,297 Level FlightAware
11:06AM 39.9070 -122.6870 177° South 37,000 -1,329 Level FlightAware
11:07AM 39.8000 -122.6790 177° South 37,000 -1,357 Level FlightAware
11:07AM 39.6800 -122.6710 177° South 36,600 -1,400 Descending FlightAware
11:08AM 39.5910 -122.6640 177° South 35,400 -1,435 Descending FlightAware
11:09AM 39.4990 -122.6580 177° South 33,600 -1,425 Descending FlightAware
11:10AM 39.3900 -122.6510 177° South 31,800 -1,395 Descending FlightAware
11:10AM 39.3060 -122.6450 177° South 30,400 -1,362 Descending FlightAware
11:11AM 39.2260 -122.6390 177° South 29,000 -1,340 Descending FlightAware
11:12AM 39.1350 -122.6330 177° South 27,500 -1,317 Descending FlightAware
11:12AM 39.0600 -122.6280 177° South 26,200 -1,293 Descending FlightAware
11:13AM 38.9830 -122.6230 177° South 24,700 -1,271 Descending FlightAware
11:14AM 38.9020 -122.6170 177° South 23,300 -1,238 Descending FlightAware
11:14AM 38.8320 -122.6120 177° South 22,000 -1,214 Descending FlightAware
11:15AM 38.7510 -122.6070 177° South 20,400 -1,187 Descending FlightAware
11:16AM 38.6780 -122.6020 177° South 18,800 -1,147 Descending FlightAware
11:17AM 38.5990 -122.5960 177° South 16,700 -1,097 Descending FlightAware
11:17AM 38.5220 -122.5910 177° South 14,300 -1,019 Descending FlightAware
11:18AM 38.4480 -122.5870 178° South 12,100 -908 Descending FlightAware
11:19AM 38.3680 -122.5810 177° South 10,700 -800 Descending FlightAware
11:19AM 38.3060 -122.5770 177° South 10,200 -744 Descending FlightAware
11:20AM 38.2640 -122.5740 177° South 9,700 -743 Descending FlightAware
11:20AM 38.2320 -122.5720 177° South 9,100 -734 Descending FlightAware
11:21AM 38.1920 -122.5690 177° South 8,400 -710 Descending FlightAware
11:21AM 38.1590 -122.5670 177° South 7,900 -681 Descending FlightAware
11:22AM 38.1210 -122.5640 176° South 7,300 -663 Descending FlightAware
11:22AM 38.0850 -122.5480 161° South 6,500 -639 Descending FlightAware
11:22AM 38.0740 -122.5390 147° Southeast 6,200 -593 Descending FlightAware
11:23AM 38.0420 -122.5110 145° Southeast 5,800 -574 Descending FlightAware
11:23AM 38.0110 -122.4820 144° Southeast 5,800 -563 Level FlightAware
11:24AM 37.9870 -122.4580 142° Southeast 5,700 -593 Descending FlightAware
11:24AM 37.9640 -122.4170 125° Southeast 5,000 -609 Descending FlightAware
11:25AM 37.9460 -122.3830 124° Southeast 4,800 -563 Descending FlightAware
11:25AM 37.9360 -122.3640 124° Southeast 4,800 -567 Level FlightAware
11:25AM 37.9130 -122.3230 125° Southeast 4,800 -585 Level FlightAware
11:26AM 37.8920 -122.2840 124° Southeast 4,800 -624 Level FlightAware
11:26AM 37.8730 -122.2500 125° Southeast 4,800 -670 Level FlightAware
11:27AM 37.8520 -122.2110 124° Southeast 4,800 -713 Level FlightAware
11:27AM 37.8310 -122.1800 131° Southeast 4,600 -773 Descending FlightAware
11:28AM 37.8170 -122.1610 133° Southeast 4,200 -795 Descending FlightAware
11:28AM 37.7910 -122.1280 135° Southeast 3,900 -757 Descending FlightAware
11:28AM 37.7720 -122.1050 136° Southeast 3,500 -774 Descending FlightAware
11:29AM 37.7480 -122.0750 135° Southeast 3,200 -756 Descending FlightAware
11:29AM 37.7230 -122.0510 143° Southeast 3,100 -776 Descending FlightAware
11:30AM 37.6880 -122.0680 201° Southwest 2,800 -861 Descending FlightAware
11:31AM 37.6680 -122.0860 215° Southwest 2,600 -963 Descending FlightAware
11:31AM 37.6580 -122.0990 226° Southwest 2,300 -1,091 Descending FlightAware
11:31AM 37.6550 -122.1090 249° West 2,200 -1,033 Descending FlightAware
11:32AM 37.6520 -122.1360 262° West 1,800 -1,071 Descending FlightAware
11:32AM 37.6610 -122.1540 302° West 1,700 -1,247 Descending FlightAware
11:32AM 37.6850 -122.1890 311° West 500 -1,343 Descending FlightAware
11:33AM 37.7000 -122.2000 311° West 159 183 200 5,270 Descending Northern Cal TRACON
11:34AM 37.7111 -122.2281 297° West 134 154 7,000 7,846 Climbing Oakland Center